Location: Baumgartsau
(48.4586°N, 14.0864°E)
Time: 03:54:14
(UTC+00:00)

Landsat 7 - Pass Details

Date: 09 April 2020
Orbit: 701 x 703 km, 98.1° (Epoch: 04 June)

Event Time Altitude Azimuth Distance (km) Brightness Sun altitude
Exits shadow 19:46:35 38° 121° (ESE) 1,072 4.2 -18.8°
Maximum altitude 19:48:01 52° 70° (ENE) 875 4.1 -18.9°
Drops below altitude 10° 19:52:39 10° 355° (N) 2,182 6.9 -19.6°
Sets 19:54:57 0° 351° (N) 3,105 7.9 -19.9°
